This is the latest recevied weather packets stored in our database for station/object KD2RHT-13. If no packets are shown the sender has not sent any weather packets the latest 1 day(s).
| Time | Temp. | Humidity | Pressure | Rain* | Wind** | Luminosity | Snow |
|---|---|---|---|---|---|---|---|
| 1778035658 | 9.44° C | 99% | 1012.7 hPa | 0 mm | - | 0 W/m² | - |
| 1778035355 | 8.89° C | 99% | 1012.4 hPa | 0 mm | - | 0 W/m² | - |
| 1778035051 | 8.89° C | 99% | 1012.7 hPa | 0 mm | - | 0 W/m² | - |
| 1778034748 | 8.89° C | 99% | 1012.1 hPa | 1.27 mm | - | 0 W/m² | - |
| 1778034445 | 8.89° C | 99% | 1012.4 hPa | 1.78 mm | - | 0 W/m² | - |
| 1778034143 | 8.89° C | 99% | 1012.4 hPa | 3.05 mm | - | 0 W/m² | - |
| 1778033841 | 8.89° C | 99% | 1012.4 hPa | 4.32 mm | - | 0 W/m² | - |
| 1778033538 | 9.44° C | 99% | 1012.1 hPa | 1.27 mm | - | 0 W/m² | - |
| 1778033234 | 9.44° C | 99% | 1012.4 hPa | 1.78 mm | - | 0 W/m² | - |
| 1778032327 | 9.44° C | 99% | 1012.1 hPa | 1.78 mm | - | 0 W/m² | - |
| 1778032024 | 9.44° C | 99% | 1012.1 hPa | 1.27 mm | - | 0 W/m² | - |
| 1778031719 | 9.44° C | 99% | 1011.7 hPa | 1.78 mm | - | 0 W/m² | - |
| 1778031418 | 9.44° C | 99% | 1012.1 hPa | 4.83 mm | - | 0 W/m² | - |
| 1778030811 | 9.44° C | 99% | 1012.1 hPa | 4.83 mm | - | 0 W/m² | - |
| 1778030507 | 9.44° C | 99% | 1012.1 hPa | 3.05 mm | - | 0 W/m² | - |
| 1778030199 | 9.44° C | 99% | 1012.1 hPa | 1.27 mm | - | 0 W/m² | - |
| 1778029895 | 9.44° C | 99% | 1012.1 hPa | 1.78 mm | - | 0 W/m² | - |
| 1778029594 | 9.44° C | 99% | 1012.1 hPa | 1.78 mm | - | 0 W/m² | - |
| 1778029291 | 9.44° C | 99% | 1011.7 hPa | 1.27 mm | - | 0 W/m² | - |
| 1778028988 | 10° C | 98% | 1011.7 hPa | 1.27 mm | - | 0 W/m² | - |
| 1778028684 | 10° C | 98% | 1011.7 hPa | 0 mm | - | 0 W/m² | - |
| 1778028381 | 10° C | 97% | 1012.1 hPa | 1.78 mm | - | 0 W/m² | - |
| 1778028078 | 10° C | 96% | 1011.7 hPa | 4.83 mm | - | 0 W/m² | - |
| 1778027470 | 10.56° C | 92% | 1011.7 hPa | 10.92 mm | - | 0 W/m² | - |
| 1778027166 | 11.67° C | 87% | 1011.7 hPa | 4.83 mm | - | 0 W/m² | - |
* Rain latest hour (hover to see other rain measurements)
** Current wind speed in m/s (hover to see current wind gust speed)